STARLINK-2452 (48115 NORAD) Tracking and Keplerian Element Data

This shows tracking and keplerian element data for the satellite.

Feedback or suggestion? Click here.




ElementValue
Catalog48115
NameSTARLINK-2452
Epoch Orbit1230
Epoch Day170.70424273
Epoch Year2021
RAAN341.4462
Inclination53.084
Eccentricity0.0001713
Argument of Perigee98.5809
Mean Anonmoly261.6511
Mean Motion15.24880875
Decay Rate-3.4E-06
L11 48115U 21027Z 21170.70424273 -.00000340 00000-0 00000+0 0 9998
L22 48115 53.0840 341.4462 0001713 98.5809 261.6511 15.24880875 12302

Live tracking and technical data element details for STARLINK-2452 (NORAD 48115). STARLINK-2452 can be tracked NOW for your location showing map with azimuth and elevation plus other details from your city location.

Track the satellite on the map from your city or location and see movement details for azimuth, elevation, latitude, longitude, range, height, and movement on the map or in text.







IsCatalogInMostPopularTable: catalog: 48115, numindb: 35
Update: records affected: 1



GetName: 48115 STARLINK-2452

Hit Count: updated at: Mon, 21 Jun 2021 03:21:20 GMT